Weather History for Ft. Stewart, GA

Change the Weather History Date:

Sunday, January 20, 2013

  Actual Average Record
Temperature  
Mean Temperature 53 °F -  
Max Temperature 67 °F 61 °F 77 °F (1982)
Min Temperature 39 °F 40 °F 18 °F (1971)
Degree Days  
Heating Degree Days 12    
Growing Degree Days 3 (Base 50)    
Moisture  
Dew Point 42 °F    
Average Humidity 88    
Maximum Humidity 100    
Minimum Humidity 38    
Precipitation  
Precipitation 0.00 in - - ()
Sea Level Pressure  
Sea Level Pressure 30.19 in    
Wind  
Wind Speed 1 mph (WNW)    
Max Wind Speed 12 mph    
Max Gust Speed -    
Visibility 6 miles    
Events      
Averages and records for this station are not official NWS values.
T = Trace of Precipitation, MM = Missing Value Source: NWS Daily Summary

Daily Weather History Graph

Daily Weather History Graph

Search for Another Location

Airport:

Trip Planner

Search our weather history database for the weather conditions in past years. The results will help you decide how hot, cold, wet, or windy it might be!

Date:

Astronomy

Jan. 20, 2013 Rise Set
Actual Time 7:25 AM EST 5:49 PM EST
Civil Twilight 6:59 AM EST 6:15 PM EST
Nautical Twilight 6:29 AM EST 6:45 PM EST
Astronomical Twilight 6:00 AM EST 7:14 PM EST
Moon 12:48 PM EST 1:58 AM EST
Length of Visible Light 11h 16m
Length of Day
10h 24m
Waxing Gibbous, 66% of the Moon is Illuminated
Jan 20
Waxing Gibbous
Jan 26
Full
Feb 3
Last Quarter
Feb 10
New
Feb 17
First Quarter

Hourly Weather History & Observations

Time (EST) Temp. Dew Point Humidity Pressure Visibility Wind Dir Wind Speed Gust Speed Precip Events Conditions
12:55 AM 43.7 °F 43.5 °F 99% 30.23 in 10.0 mi Calm Calm - N/A   Partly Cloudy
1:55 AM 44.1 °F 43.9 °F 99% 30.23 in 10.0 mi Calm Calm - N/A   Overcast
2:55 AM 43.2 °F 43.0 °F 99% 30.22 in 10.0 mi Calm Calm - N/A   Scattered Clouds
3:06 AM 42.8 °F 42.8 °F 100% 30.22 in 5.0 mi Calm Calm - N/A   Clear
3:13 AM 42.8 °F 42.8 °F 100% 30.22 in 8.0 mi Calm Calm - N/A   Clear
3:47 AM 42.8 °F 41.0 °F 93% 30.21 in 2.0 mi Calm Calm - N/A   Clear
3:48 AM 42.8 °F 41.0 °F 93% 30.21 in 1.8 mi Calm Calm - N/A   Clear
3:49 AM 42.8 °F 42.8 °F 100% 30.21 in 1.5 mi Calm Calm - N/A   Clear
3:50 AM 42.8 °F 42.8 °F 100% 30.21 in 1.2 mi Calm Calm - N/A   Clear
3:52 AM 42.8 °F 42.8 °F 100% 30.21 in 1.0 mi Calm Calm - N/A   Clear
3:53 AM 42.8 °F 42.8 °F 100% 30.21 in 1.0 mi Calm Calm - N/A   Clear
3:54 AM 42.8 °F 42.8 °F 100% 30.21 in 1.0 mi Calm Calm - N/A   Clear
3:55 AM 42.1 °F 41.9 °F 99% 30.21 in 1.0 mi Calm Calm - N/A   Clear
3:57 AM 42.8 °F 41.0 °F 93% 30.21 in 1.2 mi Calm Calm - N/A   Clear
3:58 AM 42.8 °F 41.0 °F 93% 30.21 in 1.2 mi Calm Calm - N/A   Clear
3:59 AM 42.8 °F 41.0 °F 93% 30.21 in 1.5 mi Calm Calm - N/A   Clear
4:00 AM 42.8 °F 41.0 °F 93% 30.21 in 1.8 mi Calm Calm - N/A   Clear
4:01 AM 42.8 °F 41.0 °F 93% 30.21 in 2.0 mi Calm Calm - N/A   Clear
4:03 AM 42.8 °F 41.0 °F 93% 30.21 in 3.0 mi Calm Calm - N/A   Clear
4:10 AM 42.8 °F 42.8 °F 100% 30.21 in 6.0 mi Calm Calm - N/A   Clear
4:12 AM 42.8 °F 41.0 °F 93% 30.21 in 2.5 mi Calm Calm - N/A   Clear
4:14 AM 42.8 °F 41.0 °F 93% 30.21 in 1.8 mi Calm Calm - N/A   Clear
4:16 AM 41.0 °F 41.0 °F 100% 30.21 in 1.5 mi Calm Calm - N/A   Clear
4:21 AM 41.0 °F 41.0 °F 100% 30.21 in 1.5 mi Calm Calm - N/A   Clear
4:22 AM 41.0 °F 41.0 °F 100% 30.21 in 2.0 mi Calm Calm - N/A   Clear
4:24 AM 41.0 °F 41.0 °F 100% 30.21 in 3.0 mi Calm Calm - N/A   Clear
4:36 AM 41.0 °F 41.0 °F 100% 30.21 in 8.0 mi Calm Calm - N/A   Clear
4:39 AM 41.0 °F 41.0 °F 100% 30.21 in 9.0 mi Calm Calm - N/A   Clear
4:55 AM 41.4 °F 41.2 °F 99% 30.20 in 10.0 mi Calm Calm - N/A   Clear
5:34 AM 41.0 °F 39.2 °F 93% 30.20 in 8.0 mi Calm Calm - N/A   Clear
5:36 AM 41.0 °F 41.0 °F 100% 30.20 in 8.0 mi Calm Calm - N/A   Clear
5:55 AM 39.7 °F 39.6 °F 99% 30.21 in 10.0 mi Calm Calm - N/A   Clear
6:55 AM 40.1 °F 39.9 °F 99% 30.22 in 10.0 mi Calm Calm - N/A   Clear
7:55 AM 40.6 °F 39.7 °F 97% 30.22 in 10.0 mi Calm Calm - N/A   Clear
8:55 AM 46.9 °F 46.8 °F 99% 30.21 in 10.0 mi Calm Calm - N/A   Clear
9:55 AM 54.0 °F 48.4 °F 81% 30.24 in 10.0 mi NNW 11.5 mph - N/A   Clear
10:55 AM 60.4 °F 46.9 °F 61% 30.22 in 10.0 mi NNW 6.9 mph - N/A   Clear
11:55 AM 64.2 °F 45.1 °F 50% 30.18 in 10.0 mi WNW 8.1 mph - N/A   Clear
12:55 PM 66.2 °F 44.4 °F 45% 30.13 in 10.0 mi WNW 10.4 mph - N/A   Clear
1:55 PM 67.5 °F 43.3 °F 42% 30.11 in 10.0 mi West 10.4 mph - N/A   Clear
2:55 PM 67.8 °F 42.4 °F 40% 30.09 in 10.0 mi West 9.2 mph - N/A   Clear
3:55 PM 67.8 °F 41.2 °F 38% 30.09 in 10.0 mi WNW 3.5 mph - N/A   Clear
4:55 PM 67.1 °F 41.7 °F 40% 30.09 in 10.0 mi West 5.8 mph - N/A   Clear
5:55 PM 59.7 °F 44.8 °F 58% 30.10 in 10.0 mi Calm Calm - N/A   Clear
6:55 PM 52.2 °F 44.8 °F 76% 30.11 in 10.0 mi Calm Calm - N/A   Clear
7:55 PM 47.8 °F 43.5 °F 85% 30.12 in 10.0 mi Calm Calm - N/A   Clear
8:55 PM 46.0 °F 42.4 °F 87% 30.12 in 10.0 mi Calm Calm - N/A   Clear
9:55 PM 43.5 °F 41.5 °F 93% 30.13 in 10.0 mi Calm Calm - N/A   Clear
10:55 PM 42.6 °F 40.6 °F 93% 30.12 in 10.0 mi Calm Calm - N/A   Clear
11:55 PM 41.7 °F 40.1 °F 94% 30.12 in 10.0 mi Calm Calm - N/A   Clear